Change the Weather History Date:

Sunday, November 18, 2012

  Actual Average Record
Temperature  
Mean Temperature 68 °F -  
Max Temperature 73 °F 71 °F 80 °F (2006)
Min Temperature 62 °F 60 °F 60 °F (2001)
Cooling Degree Days 2    
Growing Degree Days 18 (Base 50)    
Moisture  
Dew Point 58 °F    
Average Humidity 76    
Maximum Humidity 94    
Minimum Humidity 52    
Precipitation  
Precipitation 0.00 in - - ()
Sea Level Pressure  
Sea Level Pressure 30.05 in    
Wind  
Wind Speed 8 mph ()    
Max Wind Speed 13 mph    
Max Gust Speed 21 mph    
Visibility 9.8 miles    
Events Rain    
Averages and records for this station are not official NWS values.
T = Trace of Precipitation, MM = Missing Value Source: Averaged Metar Reports

Daily Weather History Graph

Daily Weather History Graph

Search for Another Location

Airport or City:

Trip Planner

Search our weather history database for the weather conditions in past years. The results will help you decide how hot, cold, wet, or windy it might be!

Date:

Astronomy

Nov. 18, 2012 Rise Set
Actual Time 6:49 AM JST 5:38 PM JST
Civil Twilight 6:25 AM JST 6:02 PM JST
Nautical Twilight 5:57 AM JST 6:30 PM JST
Astronomical Twilight 5:29 AM JST 6:58 PM JST
Moon 10:54 AM JST (11/18) 10:11 PM JST (11/18)
Length of Visible Light 11h 37m
Length of Day
10h 48m
Waxing Crescent, 24% of the Moon is Illuminated
Nov 18
Waxing Crescent
Nov 20
First Quarter
Nov 28
Full
Dec 7
Last Quarter
Dec 13
New

Hourly Weather History & Observations

Time (JST) Temp. Dew Point Humidity Pressure Visibility Wind Dir Wind Speed Gust Speed Precip Events Conditions
12:00 AM 66.2 °F 64.4 °F 94% 30.03 in 8.0 mi NNE 9.2 mph - N/A Rain Light Rain
12:01 AM 66.2 °F 64.4 °F 94% 30.03 in 8.0 mi NNE 9.2 mph - N/A Rain Light Rain
12:02 AM 66.2 °F 64.4 °F 94% 30.03 in 8.0 mi NNE 9.2 mph - N/A   Overcast
12:28 AM 66.2 °F 64.4 °F 94% 30.03 in 9.0 mi North 11.5 mph - N/A   Mostly Cloudy
12:55 AM 66.2 °F 62.8 °F 89% 30.03 in 10.0 mi North 12.7 mph - 0.00 in   Mostly Cloudy
1:55 AM 66.0 °F 60.4 °F 82% 30.02 in 10.0 mi North 12.7 mph 20.7 mph N/A   Mostly Cloudy
2:55 AM 65.7 °F 58.1 °F 77% 30.03 in 10.0 mi North 10.4 mph - N/A   Partly Cloudy
3:55 AM 65.7 °F 58.8 °F 79% 30.01 in 10.0 mi North 11.5 mph 20.7 mph N/A   Mostly Cloudy
4:55 AM 65.5 °F 57.4 °F 75% 30.03 in 10.0 mi North 11.5 mph 19.6 mph N/A   Partly Cloudy
5:55 AM 65.1 °F 56.8 °F 75% 30.03 in 10.0 mi NNE 9.2 mph 20.7 mph N/A   Scattered Clouds
6:55 AM 64.2 °F 55.2 °F 73% 30.06 in 10.0 mi NNE 8.1 mph - N/A   Clear
7:55 AM 63.5 °F 55.0 °F 74% 30.08 in 10.0 mi NE 5.8 mph - N/A   Partly Cloudy
8:55 AM 65.5 °F 57.0 °F 74% 30.09 in 10.0 mi NE 9.2 mph - N/A   Partly Cloudy
9:55 AM 69.3 °F 54.7 °F 60% 30.09 in 10.0 mi NE 11.5 mph - N/A   Partly Cloudy
10:55 AM 70.5 °F 52.3 °F 52% 30.09 in 10.0 mi NE 10.4 mph - N/A   Partly Cloudy
11:55 AM 70.5 °F 52.7 °F 53% 30.06 in 10.0 mi North 8.1 mph - N/A   Partly Cloudy
12:55 PM 71.6 °F 54.0 °F 54% 30.04 in 10.0 mi NNE 9.2 mph - N/A   Scattered Clouds
1:55 PM 73.0 °F 55.0 °F 53% 30.01 in 10.0 mi North 10.4 mph - N/A   Partly Cloudy
2:55 PM 71.1 °F 55.4 °F 58% 30.00 in 10.0 mi NE 11.5 mph - N/A   Scattered Clouds
3:55 PM 69.3 °F 55.9 °F 62% 30.01 in 10.0 mi North 8.1 mph - N/A   Scattered Clouds
4:55 PM 68.0 °F 55.8 °F 65% 30.04 in 10.0 mi NNE 6.9 mph - N/A   Scattered Clouds
5:55 PM 65.5 °F 56.3 °F 72% 30.04 in 10.0 mi NNE 5.8 mph - N/A   Scattered Clouds
6:55 PM 65.1 °F 56.3 °F 73% 30.04 in 10.0 mi NNE 8.1 mph - N/A   Scattered Clouds
7:55 PM 65.3 °F 55.8 °F 71% 30.05 in 10.0 mi NE 4.6 mph - N/A   Mostly Cloudy
8:25 PM 64.4 °F 57.2 °F 77% 30.05 in 10.0 mi NE 6.9 mph - N/A Rain Light Rain
8:40 PM 64.4 °F 57.2 °F 77% 30.06 in 10.0 mi NNE 8.1 mph - N/A   Scattered Clouds
8:55 PM 65.1 °F 55.8 °F 72% 30.07 in 10.0 mi North 5.8 mph - 0.00 in   Mostly Cloudy
9:55 PM 63.0 °F 57.6 °F 82% 30.07 in 10.0 mi ENE 5.8 mph - N/A   Scattered Clouds
10:55 PM 63.1 °F 57.7 °F 83% 30.09 in 10.0 mi NE 3.5 mph - 0.00 in Rain Light Rain
11:06 PM 64.4 °F 59.0 °F 83% 30.09 in 10.0 mi NE 4.6 mph - N/A   Mostly Cloudy
11:09 PM 64.4 °F 59.0 °F 83% 30.09 in 10.0 mi NE 4.6 mph - N/A   Light Drizzle
11:24 PM 62.6 °F 59.0 °F 88% 30.09 in 10.0 mi Calm Calm - N/A   Scattered Clouds
11:55 PM 62.8 °F 60.1 °F 91% 30.07 in 10.0 mi ENE 5.8 mph - 0.00 in   Scattered Clouds
11:59 PM 62.6 °F 60.8 °F 94% 30.07 in 10.0 mi ENE 4.6 mph - N/A Rain Light Rain